Home > Weather > Ballia > Past weeks

Flag for India Weather for the Past 2 Weeks in Ballia, Uttar Pradesh, India

Now
86 °F

Haze.


Feels Like: 91 °F
Forecast: 82 / 103 °F
Wind: 12 mph from East

Location: Patna Airport

Current Time: May 5, 2016 at 10:33:40 AM

Latest Report: May 5, 2016 at 10:00 AM


Visibility: 2 mi

Pressure: 29.83 "Hg

Humidity: 59%

Dew Point: 70 °F

Location of BalliaLocation

Historic Weather in Ballia — Graph

°F

Ballia Temperature Yesterday

Maximum temperature yesterday: 95 °F (at 1:30 PM)
Minimum temperature yesterday: 77 °F (at 5:30 AM)
Average temperature yesterday: 86 °F

High & Low Weather Summary for the Past Weeks

 TemperatureHumidityPressure
High111 °F (Apr 26, 2:30 PM)89% (May 5, 7:00 AM)29.83 "Hg (May 5, 7:00 AM)
Low73 °F (Apr 26, 5:30 AM)8% (Apr 24, 2:30 PM)29.39 "Hg (Apr 23, 3:30 PM)
Average95 °F31%29.60 "Hg
* Reported Apr 20 10:00 AM — May 5 9:30 AM, Ballia, Weather by CustomWeather, © 2016

Note: Actual official high and low records may vary slightly from our data, if they occured in-between our weather recording intervals... More about our weather records

Advertising

Ballia Weather History for the Previous 24 Hours

Scroll right to see more
 ConditionsComfort  
Time TempWeatherWind HumidityBarometerVisibility
9:30 AM
Thu, May 5
84 °FHaze.12 mph62%29.83 "Hg2 mi
9:00 AM84 °FHaze.14 mph62%29.80 "Hg2 mi
8:30 AM82 °FHaze.14 mph66%29.80 "Hg2 mi
8:00 AM81 °FHaze.9 mph70%29.80 "Hg2 mi
7:30 AM77 °FHaze.9 mph83%29.80 "Hg2 mi
7:00 AM75 °FHaze.9 mph89%29.80 "Hg2 mi
6:30 AM75 °FHaze.7 mph83%29.77 "Hg1 mi
5:30 AM73 °FHaze.9 mph65%29.77 "Hg1 mi
10:30 PM
Wed, May 4
81 °FHaze.8 mph62%29.74 "Hg2 mi
10:00 PM81 °FHaze.7 mph58%29.74 "Hg2 mi
9:30 PM82 °FHaze.8 mph58%29.74 "Hg2 mi
9:00 PM82 °FHaze.7 mph58%29.71 "Hg2 mi
8:30 PM82 °FHaze.6 mph58%29.71 "Hg2 mi
8:00 PM84 °FHaze.6 mph55%29.68 "Hg2 mi
7:30 PM84 °FHaze.6 mph58%29.68 "Hg2 mi
7:00 PM84 °FHaze.9 mph58%29.65 "Hg2 mi
6:30 PM86 °FScattered clouds.12 mph59%29.65 "Hg2 mi
6:00 PM86 °FScattered clouds.12 mph59%29.65 "Hg2 mi
5:30 PM88 °FScattered clouds.No wind55%29.65 "Hg2 mi
5:00 PM88 °FScattered clouds.No wind55%29.65 "Hg2 mi
4:30 PM90 °FBroken clouds.No wind52%29.65 "Hg2 mi
4:00 PM90 °FThundershowers. Broken clouds.9 mph52%29.68 "Hg2 mi
3:30 PM91 °FScattered clouds.9 mph49%29.68 "Hg3 mi
2:30 PM95 °FScattered clouds.9 mph41%29.68 "Hg3 mi
2:00 PM95 °FScattered clouds.12 mph47%29.68 "Hg3 mi
1:30 PM95 °FBroken clouds.9 mph47%29.68 "Hg3 mi
1:00 PM93 °FBroken clouds.8 mph56%29.68 "Hg3 mi
12:30 PM93 °FBroken clouds.9 mph56%29.71 "Hg3 mi
12:00 PM93 °FBroken clouds.7 mph56%29.71 "Hg3 mi
11:30 AM91 °FBroken clouds.2 mph59%29.71 "Hg3 mi
11:00 AM88 °FBroken clouds.7 mph59%29.74 "Hg3 mi
10:30 AM88 °FBroken clouds.2 mph59%29.74 "Hg3 mi
10:00 AM86 °FBroken clouds.9 mph62%29.74 "Hg3 mi
Weather by CustomWeather, © 2016

See weather overviewHow to use our weather pages